GFSNW_con_sbcape_000.txt.gz
CAPE
51 41 43 33 22 0 0 0 0 0 0 0 0 0 0 0 0 0 0 0 0 0 0 0 0 0 0 0 0 0 0 0 0 0 0 0 0 0 0 2 1 10 9 0
46 43 46 45 33 22 15 0 0 0 0 0 0 0 0 0 0 0 0 0 0 0 0 0 0 0 0 0 0 0 0 0 4 0 0 0 0 0 0 0 2 96 14 0
62 65 59 54 41 27 29 6 0 0 0 0 0 0 0 0 0 0 0 0 0 0 0 0 0 0 0 0 0 119 0 0 0 0 0 0 0 0 0 0 3 1 5 26
69 72 93 70 64 40 42 23 0 0 0 73 63 50 26 1 0 0 0 0 0 0 0 0 0 0 0 0 0 0 91 97 33 0 0 0 0 0 0 0 0 3 0 8
81 79 104 95 52 22 32 42 55 37 0 0 0 0 0 15 1 3 0 0 0 0 0 0 0 0 0 0 0 0 0 130 57 35 8 7 4 0 0 0 0 0 0 0
76 84 92 138 70 28 44 28 27 27 1 0 0 0 1 3 46 2 0 0 0 0 0 0 0 0 0 0 0 0 14 161 387 216 111 66 63 11 3 0 0 0 0 0
92 87 78 102 127 52 95 57 22 20 10 2 0 1 0 0 1 7 0 0 0 0 0 0 0 0 0 0 0 0 79 482 437 342 289 247 1 1 0 0 0 0 0 0
105 102 77 106 149 78 59 93 22 39 25 15 0 0 0 6 2 1 0 0 0 0 0 0 0 0 0 0 0 0 16 192 374 204 290 134 31 196 28 3 0 0 0 0
124 110 113 123 147 146 95 110 85 31 29 0 5 2 13 10 8 0 0 0 0 0 0 1 40 9 0 0 0 30 83 162 308 298 197 174 566 323 222 315 80 0 0 0
120 114 122 115 112 139 69 169 168 97 92 15 11 9 11 14 12 25 1 0 0 13 180 94 101 58 28 25 73 161 315 447 116 271 310 301 444 265 400 352 51 4 44 117
120 125 118 114 89 77 62 65 93 50 31 7 13 23 15 10 17 32 3 0 7 39 277 195 129 132 125 99 203 567 496 415 159 303 362 331 165 440 665 658 457 448 455 522
121 111 111 67 55 30 47 37 281 314 69 4 5 3 2 1 1 9 9 0 0 0 46 195 208 400 252 167 198 454 384 226 210 284 208 218 80 275 457 589 615 600 605 564
107 90 78 56 32 30 55 63 175 90 62 14 4 1 0 0 0 1 7 0 0 6 0 0 29 215 436 499 562 356 454 420 479 510 243 70 38 66 185 323 374 360 374 330
54 30 46 47 34 16 23 58 98 86 55 27 1 0 0 0 0 0 0 0 0 0 0 20 10 176 291 389 750 903 248 353 438 280 105 17 6 0 1 27 105 206 253 275
16 19 39 32 42 32 100 134 73 84 70 21 0 0 0 0 0 0 0 0 0 0 5 53 30 17 48 325 318 14 14 150 488 137 123 46 0 0 0 0 0 2 37 34
43 32 48 32 32 24 66 39 14 41 51 32 7 0 0 25 1 0 0 0 0 3 6 35 0 0 35 159 16 11 8 12 20 79 1 0 0 0 0 0 0 0 0 0
45 40 45 39 44 52 55 36 24 3 51 29 21 57 104 59 38 18 4 0 22 0 10 0 23 78 21 7 15 16 13 5 0 0 0 0 0 0 0 0 0 0 0 0
4 11 24 37 35 38 23 45 4 9 40 16 25 40 151 98 146 85 13 2 0 1 5 0 44 58 22 18 29 14 11 8 0 0 0 0 0 0 0 0 0 0 0 0
11 2 0 19 19 7 36 0 15 14 3 36 26 31 107 132 92 94 22 5 2 13 26 178 80 22 33 40 31 21 22 11 15 2 0 0 0 6 0 0 0 0 0 0
0 5 43 47 48 0 16 39 35 40 23 20 12 0 86 61 221 110 86 56 12 18 186 150 48 49 61 39 46 18 4 23 10 0 0 0 6 0 0 0 0 0 0 0
18 23 29 51 0 63 52 41 34 46 27 26 25 66 79 105 188 217 178 120 104 14 123 49 47 15 65 72 52 41 44 35 66 80 50 2 0 0 0 0 0 0 0 0
22 25 16 13 45 49 15 64 38 16 90 122 134 22 7 9 62 183 206 134 118 90 127 89 11 25 44 62 74 71 74 68 95 58 31 4 0 0 0 0 0 0 0 0
24 17 14 30 26 27 115 106 157 156 105 207 193 146 0 139 111 186 255 153 219 68 97 97 56 71 85 71 63 84 58 57 39 14 3 1 0 0 0 0 0 0 1 7
12 12 3 5 7 22 65 123 185 244 252 246 209 230 123 186 134 136 85 215 212 114 60 80 132 127 101 86 44 21 14 8 9 2 5 1 2 1 4 11 4 8 17 35
5 4 3 3 3 46 127 187 240 177 184 256 288 76 108 132 177 116 193 89 88 31 17 77 278 173 184 166 148 121 118 89 69 41 19 15 14 11 14 41 62 47 54 75
30 26 45 96 89 66 60 71 203 171 159 343 118 20 40 137 156 75 107 46 17 37 32 98 236 275 210 279 219 206 197 160 117 74 50 25 26 42 54 52 53 91 117 97
34 77 93 88 73 48 11 39 60 74 282 249 145 157 141 195 63 24 16 5 2 66 149 309 357 338 325 335 285 244 214 242 223 172 134 165 89 58 46 51 58 40 52 83

GFSNW_con_sbcape_003.txt.gz
CAPE
61 51 64 51 30 0 0 0 0 0 0 0 0 0 0 0 0 0 0 0 0 0 0 0 0 0 0 0 0 0 0 0 0 0 0 0 0 0 0 25 35 21 72 71
52 61 77 62 32 22 28 7 0 0 0 0 0 0 0 0 0 0 0 0 0 0 0 0 0 0 0 0 0 0 0 0 0 0 0 0 0 0 0 0 12 132 44 4
45 66 75 64 44 44 43 36 8 7 3 0 0 0 0 0 0 0 0 0 0 0 0 0 0 0 0 0 0 0 0 0 0 0 0 0 0 0 0 0 0 7 11 47
58 78 89 75 63 41 25 63 39 52 58 41 4 8 33 13 19 11 3 2 0 0 0 0 0 0 0 0 0 0 0 0 0 0 0 3 0 0 0 0 0 1 4 40
81 89 127 91 77 31 8 123 107 102 67 46 1 0 0 0 1 1 0 0 1 0 0 0 0 0 0 0 0 0 0 15 18 0 0 0 2 3 0 0 0 0 0 1
102 102 101 134 77 33 83 83 191 139 22 75 95 3 9 19 4 3 0 0 0 13 9 0 0 0 6 0 19 18 38 70 328 161 66 93 72 0 0 1 1 0 0 0
107 120 114 121 143 70 132 50 48 109 100 84 127 55 13 2 2 39 18 0 0 0 0 0 0 0 0 0 4 2 38 66 65 143 330 239 0 99 58 30 22 13 8 0
102 109 144 134 154 155 259 117 11 28 51 50 111 125 49 28 11 2 0 0 0 0 0 0 0 0 0 0 0 0 18 54 79 281 406 273 221 541 440 500 195 29 24 1
123 122 162 140 153 187 291 403 91 45 33 64 73 87 56 64 33 29 14 5 0 0 2 2 17 16 0 0 0 0 1 14 207 450 266 326 171 700 508 402 211 15 45 49
149 160 161 147 139 142 299 138 80 53 32 14 53 79 33 32 9 82 2 34 6 8 20 13 13 19 4 3 0 0 0 3 0 78 216 179 845 502 547 429 417 1114 844 628
145 164 159 150 161 116 185 289 336 73 34 10 47 60 59 4 42 2 19 78 52 99 111 124 47 32 32 40 57 44 0 15 24 90 142 183 549 556 575 1070 886 1008 993 864
123 128 109 139 67 63 54 138 297 134 61 10 37 52 42 32 37 18 10 9 2 28 137 135 30 171 196 98 95 60 111 18 38 101 268 916 714 891 840 831 892 1002 1071 962
109 91 75 82 82 39 95 101 259 151 69 29 78 86 83 3 0 1 19 22 18 47 18 5 29 60 269 217 158 104 173 147 324 552 662 586 672 599 591 621 705 759 1003 1079
67 65 63 57 52 33 38 190 182 123 77 84 16 74 38 7 8 0 0 0 22 0 13 9 66 87 78 105 172 592 21 372 481 767 533 331 182 231 230 309 432 419 609 830
30 43 51 73 42 66 77 175 321 361 72 43 6 0 58 0 0 1 0 0 0 1 5 30 70 68 34 190 124 2 11 29 468 521 560 298 0 0 2 0 0 1 21 105
22 47 53 25 22 75 93 105 67 69 182 68 5 37 152 195 0 5 0 1 20 16 23 17 76 21 27 66 16 11 6 85 253 74 60 0 0 0 0 0 0 0 0 0
4 0 4 22 27 40 117 58 23 2 48 25 21 7 214 383 59 24 67 25 4 12 11 8 87 57 58 8 11 26 1 46 0 8 10 8 3 0 0 0 0 0 0 0
11 0 0 16 41 17 22 32 5 9 30 34 28 25 366 301 236 206 132 49 6 48 39 80 27 67 48 14 19 12 2 10 11 7 13 8 6 4 0 0 0 0 0 0
0 0 0 14 12 18 216 0 0 0 19 24 23 19 66 250 62 37 51 42 22 5 17 117 71 51 32 24 3 22 12 9 31 8 12 12 7 1 0 0 0 0 0 0
2 9 39 185 79 0 56 95 78 25 36 18 7 41 114 70 155 58 11 6 11 56 95 46 42 23 40 43 19 39 14 0 0 0 0 0 2 1 16 0 0 0 0 1
16 21 44 77 0 66 127 51 57 36 34 35 177 366 302 147 149 143 108 136 43 8 92 50 27 34 39 30 23 62 51 89 17 1 0 0 0 41 76 23 14 20 46 34
9 7 5 13 53 74 39 65 71 71 54 216 151 160 140 112 57 217 256 117 20 87 44 7 14 43 51 39 28 33 73 62 38 19 23 33 44 40 51 55 30 25 46 31
31 41 28 23 80 115 18 82 18 65 191 273 286 219 149 244 188 2 131 72 71 92 37 17 18 33 52 78 54 48 86 55 37 28 8 6 17 21 36 49 24 33 42 59
16 13 9 6 27 68 270 289 188 281 386 349 210 139 160 303 285 136 35 63 52 42 13 9 41 43 57 129 104 95 71 71 74 42 24 20 35 20 25 23 42 17 79 119
5 2 4 26 46 147 102 347 268 223 247 199 131 216 168 186 176 151 99 80 15 10 64 86 50 62 82 75 78 72 75 83 82 61 35 30 34 32 36 104 60 103 120 92
100 41 46 86 153 131 101 187 257 299 346 218 199 183 132 83 65 34 40 19 10 8 75 194 214 163 77 92 125 199 127 113 88 59 44 43 35 48 68 58 46 84 100 122
56 63 41 43 42 116 169 182 221 312 335 256 119 73 55 51 16 18 10 5 3 33 63 190 110 299 252 123 122 189 166 199 146 113 149 158 84 65 100 130 28 39 38 23

GFSNW_con_sbcape_006.txt.gz
CAPE
52 58 64 56 42 0 0 5 0 0 8 6 7 0 0 0 0 0 0 0 0 0 0 0 0 0 0 0 0 0 0 0 0 0 0 0 0 0 0 0 0 0 0 5
59 64 62 51 35 28 41 16 1 0 0 4 1 0 0 0 0 0 0 0 0 0 0 0 0 0 0 0 0 0 0 0 0 0 0 0 0 0 0 0 0 8 5 0
84 94 79 62 52 48 42 42 5 0 1 0 18 12 1 1 0 0 0 0 0 0 0 0 0 0 0 0 0 21 0 0 0 0 0 0 0 0 0 0 0 0 0 7
85 132 108 84 75 46 58 57 28 16 12 2 3 8 38 15 32 0 2 1 0 0 0 0 0 0 0 0 0 1 0 0 0 0 0 0 0 0 0 0 0 0 0 0
94 110 195 169 72 21 74 72 82 84 33 1 0 0 0 1 9 5 0 0 0 0 0 0 0 0 0 0 0 0 0 0 0 0 0 0 5 0 0 0 0 0 0 0
120 152 160 201 115 12 105 15 50 125 32 43 32 0 0 2 6 1 3 2 0 1 0 0 0 0 0 0 0 29 27 0 23 0 0 1 22 0 2 0 0 0 0 0
127 174 170 177 170 39 297 169 102 16 105 62 77 65 19 6 84 14 0 5 13 0 0 0 0 0 0 0 0 0 126 24 12 32 160 82 0 0 1 1 1 0 0 0
133 163 181 157 217 183 363 314 62 16 54 47 9 105 93 68 49 119 2 0 0 0 0 0 0 0 0 0 0 0 43 135 76 234 273 48 36 44 96 42 16 6 4 45
136 177 216 191 246 173 281 491 160 12 44 0 36 102 89 60 133 128 66 79 50 0 0 2 9 3 3 6 5 0 0 242 86 179 82 177 262 460 351 331 238 821 773 632
64 133 172 171 161 201 244 363 278 60 5 4 15 91 100 134 145 133 192 115 71 0 0 5 24 10 0 1 43 0 2 53 33 65 44 0 457 380 216 417 469 883 825 841
44 137 115 140 132 159 180 270 354 54 23 8 18 61 87 43 66 44 20 3 125 98 1 4 9 1 0 0 20 61 3 0 0 204 395 330 523 111 213 892 800 707 675 779
78 86 101 100 106 64 48 243 454 284 104 3 0 16 86 21 15 53 18 5 9 98 101 104 88 8 107 102 45 7 10 0 15 22 23 260 942 1179 856 759 770 1149 1435 1053
58 57 47 59 71 64 34 394 427 219 43 14 69 83 129 84 14 0 21 2 8 35 28 68 54 88 172 202 39 62 55 154 101 158 324 908 803 582 530 697 1119 1149 1185 1309
39 36 23 26 39 33 21 98 232 172 61 51 0 2 62 49 97 26 0 1 17 42 59 26 40 59 77 20 68 317 180 144 388 269 1421 863 694 600 615 604 744 687 366 305
21 21 32 41 30 71 32 134 392 255 27 28 8 0 0 37 10 32 1 0 0 1 1 78 22 132 70 108 63 18 14 59 204 770 867 778 487 238 30 30 127 42 17 13
12 1 0 3 8 62 36 80 129 269 186 64 21 8 6 166 8 0 2 0 4 5 51 43 0 20 86 86 33 16 30 103 77 4 11 0 0 0 0 0 0 0 0 0
22 22 3 0 15 18 98 59 23 1 69 56 19 0 238 222 0 2 11 1 8 44 40 16 17 86 71 63 34 29 38 34 9 0 9 4 2 1 0 0 0 0 0 0
5 2 0 0 0 0 2 21 3 4 28 9 23 5 82 132 20 66 83 55 31 66 49 16 95 61 23 31 36 28 3 24 27 34 13 8 14 3 0 0 0 0 0 0
0 0 0 1 2 8 167 0 0 0 8 17 24 14 36 2 33 73 30 28 6 64 34 50 65 28 13 22 21 6 4 14 2 1 0 8 4 0 0 0 0 0 0 0
0 0 34 102 204 5 16 34 30 19 19 29 11 2 47 3 0 12 11 1 2 16 32 51 27 16 20 11 19 12 0 0 27 8 1 0 0 4 1 0 0 0 0 0
11 11 14 15 3 71 59 43 16 16 14 9 20 126 278 16 58 190 250 205 111 33 4 40 16 19 39 26 18 52 11 0 0 9 10 0 0 0 0 0 0 0 0 0
1 0 0 2 48 56 15 6 13 20 3 28 172 168 133 123 103 43 107 80 17 34 46 7 15 33 58 31 24 30 19 6 10 5 19 21 28 29 0 0 6 11 64 68
7 23 34 35 46 52 20 22 3 24 7 144 150 186 51 123 223 22 19 8 41 46 14 16 19 45 40 27 45 28 33 38 29 17 3 12 31 2 0 19 71 66 111 51
10 3 106 14 12 9 23 94 65 78 72 256 106 111 3 2 19 65 12 31 17 24 28 18 31 25 41 53 78 91 41 32 45 58 42 40 64 16 47 52 45 91 73 200
18 45 215 110 168 383 267 209 161 236 111 136 181 176 189 88 72 80 57 5 10 14 33 27 59 56 118 139 118 149 109 123 119 109 118 102 121 149 142 130 75 81 115 179
141 117 71 112 71 50 77 191 167 470 193 110 130 65 34 12 21 9 15 19 11 4 31 56 88 139 40 57 140 139 107 111 194 181 188 257 177 151 176 96 159 111 156 282
29 54 83 109 137 103 138 171 265 194 321 89 12 34 53 26 12 7 10 13 1 16 42 38 48 50 26 135 178 163 101 266 188 240 169 34 249 141 290 307 301 48 173 185

GFSNW_con_sbcape_009.txt.gz
CAPE
65 69 65 56 41 0 0 0 0 0 0 0 0 0 0 0 0 0 0 0 0 0 0 0 0 0 0 0 0 0 0 0 0 0 0 0 0 0 0 0 0 0 0 0
73 73 67 69 53 49 9 3 0 0 0 0 0 0 0 0 0 0 0 0 0 0 0 0 0 0 0 0 0 0 0 0 0 0 0 0 0 0 0 0 0 0 0 0
65 75 72 69 52 55 17 27 4 0 0 0 2 0 0 0 0 0 0 0 0 0 0 0 0 0 0 0 0 15 1 0 0 0 0 0 0 0 0 0 0 0 0 0
64 69 95 121 84 62 56 95 21 12 2 0 0 10 1 0 0 0 0 0 0 0 0 0 0 0 0 0 0 0 0 0 0 0 0 0 0 0 0 0 0 0 0 0
64 109 135 188 133 55 99 45 61 12 0 0 0 0 0 3 0 0 0 0 0 0 1 0 0 0 0 0 0 0 0 0 0 0 0 0 0 0 0 0 0 0 0 0
71 79 153 189 144 17 127 84 50 52 7 0 4 0 1 1 8 0 4 0 0 0 0 0 0 0 0 0 0 0 0 0 0 0 0 0 0 0 0 0 0 0 0 0
63 56 142 203 196 54 157 189 104 28 8 5 2 0 0 4 5 3 0 5 4 0 7 0 0 0 0 0 0 0 0 0 0 0 0 11 0 0 0 0 0 0 0 0
51 47 101 145 208 138 147 198 85 16 15 9 5 0 7 1 2 1 0 0 18 8 38 3 0 0 0 0 0 0 0 0 0 0 0 0 0 0 0 0 0 36 286 158
61 60 96 147 212 159 136 198 135 21 7 3 0 11 0 1 13 35 67 24 19 10 11 12 1 1 0 0 0 0 0 0 0 0 0 0 0 52 187 147 206 730 560 487
66 68 131 131 179 217 184 189 130 30 4 0 0 2 17 23 57 16 2 9 0 29 1 22 7 0 0 0 0 0 1 16 0 25 0 0 76 257 177 92 467 489 398 439
94 95 102 122 138 128 79 95 192 106 5 0 1 0 5 6 24 44 45 0 10 1 113 0 18 0 0 0 0 0 0 0 0 86 91 69 436 336 413 658 856 1193 1180 1401
83 57 75 66 73 86 88 65 287 203 49 2 0 0 0 0 0 17 4 0 0 1 91 218 157 2 60 14 0 0 0 0 0 0 47 366 440 222 483 511 924 1001 1067 1463
56 66 64 46 52 55 62 64 139 110 37 2 0 0 0 1 0 0 2 0 0 41 53 44 144 87 183 104 16 159 35 93 46 127 0 176 101 181 859 565 331 120 582 721
47 36 31 43 59 72 35 18 97 82 40 16 0 0 0 0 4 0 0 0 0 67 69 69 31 30 125 72 18 17 302 69 116 142 549 528 454 314 417 300 53 0 15 44
46 31 14 0 4 48 21 4 15 37 13 18 0 0 0 0 0 0 0 0 0 8 1 58 64 99 70 73 79 1 5 137 59 186 77 28 113 4 12 4 4 0 0 21
40 30 16 19 36 28 1 37 90 170 52 23 23 0 0 31 102 47 14 5 0 0 56 80 58 27 54 27 6 0 0 16 46 35 0 0 0 0 0 0 0 0 0 0
26 24 20 12 20 3 6 38 41 2 1 41 21 0 29 3 34 0 0 0 0 11 68 34 58 29 25 38 5 0 0 26 9 0 0 0 0 0 0 0 0 0 0 0
13 9 4 1 0 2 5 4 1 0 15 25 17 4 4 5 34 8 7 0 25 58 55 20 8 45 31 24 11 45 21 49 16 12 1 0 8 0 0 0 0 0 0 0
3 2 0 0 0 0 57 0 0 1 11 14 21 11 6 18 29 70 41 24 11 65 27 9 19 19 18 22 2 10 16 13 11 64 9 0 0 0 0 0 0 0 0 0
0 0 6 36 44 1 11 21 15 12 13 15 9 7 23 25 1 40 61 24 21 12 8 50 24 22 28 10 20 4 6 23 0 2 0 1 0 0 0 0 0 0 0 0
6 1 1 0 0 15 17 18 13 10 9 9 1 26 39 52 43 49 39 56 42 11 18 26 17 14 23 10 21 8 2 5 7 0 0 0 0 0 0 0 0 0 0 0
0 0 0 0 46 27 7 6 13 9 3 0 8 41 32 43 5 52 38 46 5 7 49 18 10 22 29 19 9 3 5 3 17 24 15 0 0 0 0 0 0 0 0 0
3 0 22 3 12 13 9 1 1 7 25 31 25 28 8 16 27 41 19 7 15 20 9 13 24 25 41 35 36 16 16 21 12 33 30 7 22 23 34 19 31 33 46 64
13 9 0 36 18 4 15 3 2 0 14 1 12 10 2 6 19 7 8 50 32 18 7 8 8 0 0 5 40 40 37 36 7 11 44 37 58 66 52 69 54 66 21 57
73 47 2 100 77 100 73 40 34 6 185 114 87 54 31 19 32 20 19 3 11 11 22 23 14 3 27 53 57 74 58 100 50 70 49 87 91 78 40 21 54 62 86 19
203 108 94 108 61 38 18 61 2 13 9 34 7 29 17 21 8 7 11 12 5 1 10 20 19 14 34 38 36 28 106 169 53 39 116 119 35 129 89 63 61 17 99 116
15 67 143 66 56 67 98 62 18 38 0 0 6 20 24 4 1 4 12 12 1 8 20 7 14 29 26 27 20 47 69 6 0 1 6 13 0 8 7 0 8 1 11 7

GFSNW_con_sbcape_012.txt.gz
CAPE
49 59 62 55 42 3 0 0 0 0 0 0 0 0 0 0 0 0 0 0 0 0 0 0 0 0 0 0 0 0 0 0 0 0 0 0 0 0 0 0 0 0 0 0
69 70 67 51 38 33 0 0 0 0 0 0 0 0 0 0 0 0 0 0 0 0 0 0 0 0 0 0 0 0 0 0 0 0 0 0 0 0 0 0 0 0 0 0
77 80 61 45 44 22 0 0 0 0 0 0 0 1 0 0 0 0 0 0 0 0 0 0 0 0 0 0 0 0 0 0 0 0 0 0 0 0 0 0 0 0 0 0
65 80 76 59 47 24 0 0 0 0 1 0 0 4 0 0 0 0 0 0 0 0 0 0 0 0 0 0 0 0 0 0 0 0 0 0 0 0 0 0 0 0 0 0
80 86 93 80 64 21 2 8 25 0 0 0 0 0 0 2 0 0 0 0 0 0 0 0 0 0 0 0 0 0 0 0 0 0 0 0 0 0 0 0 0 0 0 0
73 79 94 88 70 6 0 2 13 13 3 0 0 0 0 0 0 0 1 0 0 0 0 0 0 0 0 0 0 0 0 0 0 0 0 0 0 0 0 0 0 0 0 0
63 71 110 133 107 17 0 0 39 36 7 0 0 0 0 0 0 4 0 0 0 0 0 0 0 0 0 0 0 0 0 0 0 0 0 0 0 0 0 0 0 0 0 0
74 80 70 114 182 171 0 3 54 32 9 2 3 1 0 0 0 0 0 1 0 0 0 0 0 0 0 0 0 0 0 0 0 0 0 0 0 0 0 0 0 0 0 0
82 104 126 154 238 186 3 0 1 48 7 0 5 0 0 0 0 0 0 0 0 0 17 13 0 0 0 1 9 0 0 0 0 0 0 0 0 0 3 0 227 179 0 0
103 125 128 154 187 227 3 0 0 7 3 1 0 1 0 0 0 0 0 1 0 23 28 9 0 0 2 0 0 7 3 0 1 0 0 0 14 14 54 51 37 57 6 0
68 83 98 109 107 120 7 0 0 25 9 2 0 0 2 0 1 4 0 3 0 0 17 6 12 0 0 1 0 0 6 34 74 0 2 151 0 30 47 109 931 882 968 551
43 41 54 66 61 74 29 0 0 2 39 5 0 0 0 0 0 0 0 16 5 3 18 11 2 33 81 23 47 58 79 4 1 0 0 0 0 177 414 440 500 499 511 487
37 49 48 48 63 66 43 0 0 2 19 0 0 0 0 0 0 0 2 0 1 0 0 25 18 92 129 113 73 147 71 83 22 0 0 0 421 526 199 42 155 64 27 9
19 25 19 25 36 31 25 0 0 20 34 6 0 0 0 0 0 0 0 0 0 2 0 20 5 13 51 31 162 3 134 100 122 0 0 0 11 124 99 0 0 0 0 0
21 22 29 30 18 43 4 0 0 0 13 12 2 0 0 0 0 0 0 0 0 0 12 21 44 47 16 69 47 20 56 135 189 107 1 2 1 2 2 0 0 0 0 0
14 26 23 18 20 38 0 0 0 0 13 7 2 0 0 0 0 1 0 0 0 0 0 9 64 31 27 9 15 33 18 2 0 42 0 0 0 0 0 0 0 0 0 0
11 16 17 16 10 11 0 0 0 1 0 13 14 0 0 1 0 0 0 0 0 0 9 65 65 66 0 17 5 12 14 7 133 7 1 0 0 0 0 0 0 0 0 0
5 6 7 4 4 8 8 0 0 0 7 16 16 1 0 0 3 14 9 0 10 19 24 18 31 25 10 18 1 0 0 6 86 12 0 0 0 0 0 0 0 0 0 0
1 1 0 0 0 0 0 0 0 0 0 15 12 14 5 0 2 15 13 39 22 19 6 7 12 22 10 19 3 6 10 50 23 0 0 0 0 0 0 0 0 0 0 0
0 0 0 0 0 1 1 12 5 0 2 6 6 16 15 5 9 0 13 37 15 6 7 21 12 17 12 7 26 47 5 2 3 0 0 0 0 0 0 0 0 0 0 0
0 0 0 0 0 1 4 13 9 8 7 5 3 5 3 18 24 13 52 24 18 3 9 16 12 4 7 43 23 54 36 8 1 0 0 0 0 0 0 0 0 0 0 0
0 0 0 0 0 1 7 1 4 5 3 8 6 29 26 30 20 2 26 23 24 10 36 4 6 16 8 25 30 20 22 27 29 3 6 5 0 0 0 0 0 3 2 0
0 0 0 0 0 1 3 0 0 1 2 8 23 4 4 1 19 26 20 5 11 35 5 6 10 16 4 1 15 17 22 17 5 9 7 23 42 11 0 30 41 58 33 10
0 0 0 0 3 2 0 0 1 0 0 0 0 10 0 0 11 3 21 19 0 7 3 2 0 0 0 0 0 9 6 36 9 45 82 42 19 31 56 74 34 11 12 21
0 0 2 1 0 0 6 7 0 0 0 1 5 2 2 3 1 6 10 5 5 7 10 5 35 10 13 25 20 58 29 31 49 19 20 50 21 21 10 10 16 5 15 2
0 2 10 0 0 0 0 0 0 0 0 0 0 0 0 4 2 4 10 7 2 0 33 16 0 14 7 2 11 0 11 4 0 1 0 0 0 0 0 0 0 0 0 0
4 6 2 1 1 0 0 0 0 0 0 0 0 4 9 0 1 3 14 1 10 5 2 3 19 13 0 12 0 0 0 0 0 0 0 0 0 0 0 0 0 0 0 0

GFSNW_con_sbcape_015.txt.gz
CAPE
55 69 72 60 33 0 0 0 0 0 0 0 0 0 0 0 0 0 0 0 0 0 0 0 0 0 0 0 0 0 0 0 0 0 0 0 0 0 0 0 0 0 0 0
59 70 73 56 36 22 0 0 0 0 0 0 0 0 0 0 0 0 0 0 0 0 0 0 0 0 0 0 0 0 0 0 0 0 0 0 0 0 0 0 0 0 0 0
61 78 66 55 48 30 0 0 0 0 0 0 0 0 0 0 0 0 0 0 0 0 0 0 0 0 0 0 0 0 0 0 0 0 0 0 0 0 0 0 0 0 0 0
72 92 81 64 44 20 0 0 0 0 1 0 0 0 0 2 4 0 0 0 0 0 0 0 0 0 0 0 0 0 0 0 0 0 0 0 0 0 0 0 0 0 0 0
65 82 107 111 58 1 2 4 6 8 0 0 0 0 0 2 0 4 0 0 0 0 0 0 0 0 0 0 0 0 0 0 0 0 0 0 0 0 0 0 0 0 0 0
99 111 121 161 58 0 0 0 0 17 22 6 1 0 0 0 0 1 6 0 0 0 0 0 0 0 0 0 0 0 0 0 0 0 0 0 0 0 0 0 0 0 0 0
47 75 137 195 103 1 0 0 10 36 23 10 9 2 0 0 0 2 0 0 0 0 0 0 0 0 0 0 0 0 0 0 0 0 0 0 0 0 0 0 0 0 0 0
29 64 97 194 204 83 0 0 41 48 16 11 2 0 0 0 0 0 0 0 0 0 0 0 0 0 0 0 0 0 0 0 0 0 0 0 0 0 0 0 0 0 0 0
26 50 91 122 226 167 0 0 0 10 20 7 1 0 3 2 0 0 0 0 0 0 0 0 11 0 12 0 2 0 0 0 0 0 0 0 0 0 0 0 0 0 0 0
17 32 44 61 91 89 0 0 0 23 24 8 0 0 0 3 0 2 0 0 0 0 0 0 0 2 14 0 55 2 0 48 0 0 0 0 0 0 0 0 0 0 0 0
15 30 41 45 53 63 2 0 0 3 21 0 3 2 1 1 3 6 0 0 0 0 2 2 4 4 2 6 0 41 58 62 52 0 2 0 21 39 100 60 1 212 88 168
6 15 27 30 38 55 19 2 0 0 39 0 0 0 0 0 0 1 0 2 0 0 0 0 4 4 1 0 27 39 49 66 47 1 0 0 0 1 101 51 96 77 286 396
1 7 18 34 36 36 35 1 0 2 16 1 0 0 0 0 0 0 4 2 0 1 0 23 13 24 15 10 15 44 70 74 75 61 10 25 108 8 16 10 23 13 7 0
8 6 18 21 23 40 31 1 0 5 31 9 0 0 0 0 0 0 0 0 0 10 9 13 12 28 26 7 44 3 0 123 51 95 27 20 76 0 0 0 0 0 0 0
10 23 21 25 28 44 23 0 0 0 2 18 1 0 0 0 0 0 0 0 0 0 21 33 29 22 42 34 3 6 68 209 108 18 58 4 1 0 0 0 0 0 0 0
10 27 29 27 30 38 0 0 0 0 3 15 3 0 0 0 0 0 0 0 0 0 0 0 0 7 32 28 1 48 98 38 93 307 9 0 0 0 0 0 0 0 0 0
9 15 19 10 15 7 0 0 0 1 0 11 8 0 0 0 0 0 0 0 0 0 0 0 0 5 27 13 20 52 13 5 39 139 4 1 0 0 0 0 0 0 0 0
6 6 4 5 7 12 10 0 0 0 4 17 17 5 0 0 0 0 0 0 0 1 9 13 30 26 17 8 0 9 0 19 8 26 12 0 0 0 1 0 0 0 0 0
2 1 0 0 0 2 0 0 0 0 0 8 10 7 7 6 1 4 4 17 18 22 30 26 16 10 6 2 3 1 0 9 87 1 0 0 0 0 0 0 0 0 0 0
0 0 0 0 0 0 8 3 5 2 10 16 6 12 6 14 15 8 13 27 20 6 6 37 9 3 0 1 8 11 11 2 0 0 0 0 0 0 0 0 0 0 0 0
0 0 0 0 0 3 5 0 5 11 3 11 8 5 3 11 17 20 24 6 12 3 4 13 3 2 13 63 43 12 7 3 1 0 0 0 0 0 0 0 0 0 0 0
0 0 0 0 0 0 0 0 0 2 0 4 8 6 3 12 22 16 19 9 13 7 28 7 1 0 4 45 23 4 1 0 0 0 0 0 0 0 0 0 0 0 0 0
0 0 0 0 0 1 1 0 2 2 0 1 0 8 1 0 16 10 3 15 24 28 4 3 1 0 0 2 1 7 9 9 22 36 4 0 0 3 0 8 9 0 1 1
0 0 0 0 0 5 6 19 15 6 0 0 0 6 2 1 5 9 11 9 0 8 2 1 8 33 46 29 60 26 22 4 0 23 16 8 8 15 7 0 0 0 0 0
0 0 0 0 0 0 0 0 0 0 0 0 0 0 0 0 0 6 4 2 4 6 9 3 16 6 11 12 3 0 0 0 0 0 0 0 0 0 0 0 0 0 0 0
1 3 5 0 0 0 0 0 0 0 0 0 0 0 0 3 1 5 12 5 2 1 11 18 14 1 0 0 0 0 0 0 0 0 0 0 0 0 0 0 0 0 0 0
14 21 0 0 0 0 0 0 0 0 0 0 0 3 17 0 1 6 6 10 19 14 2 0 8 1 0 0 0 0 0 0 0 0 0 0 0 0 0 0 0 0 0 0

GFSNW_con_sbcape_021.txt.gz
CAPE
43 54 42 16 0 0 0 1 0 0 0 0 0 0 0 0 0 0 0 0 0 0 0 0 0 0 0 0 0 0 0 0 0 0 0 0 0 0 0 0 0 0 0 0
49 54 34 8 0 0 7 0 0 0 0 1 4 1 0 0 12 12 1 0 0 0 0 0 0 0 0 0 0 0 0 0 0 0 0 0 0 0 0 0 0 0 0 0
38 56 45 13 0 0 0 1 0 0 0 0 3 4 0 1 0 10 14 15 0 0 0 0 0 0 0 0 0 0 0 0 0 0 0 0 0 0 0 0 0 0 0 0
32 58 56 42 4 0 0 1 3 2 2 0 2 14 0 7 7 0 5 9 36 9 0 0 0 0 0 0 0 0 0 0 0 0 0 0 0 0 0 0 0 0 0 0
32 47 58 49 35 0 4 16 23 27 4 8 17 0 5 12 13 8 3 90 7 9 15 4 3 0 0 0 0 0 0 0 0 0 0 0 0 0 0 0 0 0 0 0
9 16 44 54 31 0 11 17 28 18 27 8 38 14 7 12 22 0 17 28 11 0 4 0 0 0 0 0 0 0 0 0 0 0 0 0 0 0 0 0 0 0 0 0
6 12 41 68 56 4 36 69 63 59 16 34 8 12 15 9 17 28 0 0 7 1 0 0 0 0 0 0 0 0 0 0 0 0 0 0 0 0 0 0 0 0 0 0
3 10 27 54 65 39 13 16 61 51 25 11 7 11 3 3 0 12 1 2 1 0 0 0 0 4 0 0 0 0 0 0 0 0 0 0 0 0 0 0 0 0 0 0
1 6 12 37 57 45 17 19 20 48 52 4 4 16 6 5 8 8 8 0 0 0 95 47 7 0 0 0 11 0 0 0 1 0 0 0 0 0 0 0 0 0 0 2
0 2 11 31 60 56 31 30 3 37 20 11 11 17 14 3 2 16 4 3 1 42 10 5 16 9 7 0 0 13 1 0 1 0 0 0 0 0 65 10 0 0 0 0
0 4 10 18 49 65 36 2 0 75 34 11 9 5 6 27 11 12 5 20 16 44 59 39 10 19 42 33 0 0 12 17 9 1 0 0 0 0 0 91 62 38 25 0
3 9 10 15 49 59 70 1 0 0 23 0 3 1 8 8 9 14 17 15 14 20 42 16 6 39 34 40 19 19 22 7 75 0 0 0 0 0 11 117 87 65 26 1
8 5 11 26 42 41 66 1 1 4 13 2 0 0 0 0 0 0 7 9 13 13 27 45 83 41 35 62 42 36 52 75 95 14 0 0 0 0 20 82 60 42 23 11
13 6 16 23 36 35 50 4 1 1 4 9 1 0 0 0 0 0 0 1 3 10 51 31 33 55 46 20 30 48 27 4 19 51 4 0 0 0 25 95 29 68 10 3
13 9 17 25 29 28 38 27 1 0 0 14 1 0 0 0 0 0 0 1 6 8 48 37 40 34 27 22 32 21 5 2 22 4 24 30 0 25 100 93 133 36 0 37
10 12 16 17 16 9 0 0 2 14 6 7 20 1 0 0 0 0 0 0 3 6 15 13 32 11 41 73 32 0 0 0 5 46 13 6 10 7 14 97 208 59 49 87
3 14 12 7 7 3 0 0 0 4 4 13 20 4 0 0 0 0 1 2 5 9 20 35 16 12 40 38 16 0 6 31 33 37 13 1 3 4 123 216 197 36 38 5
7 13 2 2 5 3 9 0 1 3 18 10 16 16 4 3 15 8 0 4 8 10 13 20 28 56 24 12 0 0 8 5 2 4 1 3 10 48 91 78 154 22 8 0
7 1 0 0 2 6 6 4 12 9 2 6 9 13 23 3 15 30 21 3 12 22 12 30 20 24 17 2 1 0 2 10 8 12 27 37 29 80 37 52 16 0 0 0
0 0 0 0 4 2 1 2 2 2 14 12 5 6 5 7 11 14 19 37 15 10 7 16 14 4 0 0 0 0 2 3 4 5 4 29 25 105 75 24 37 18 12 12
0 1 0 1 0 11 6 0 2 5 1 3 3 3 3 3 7 12 26 9 7 7 5 6 2 1 9 1 49 21 29 10 33 22 47 0 0 46 52 39 50 29 25 4
3 3 3 0 0 0 1 1 0 0 0 1 3 1 2 2 6 13 6 4 3 2 15 6 0 2 4 8 6 6 9 4 71 43 16 0 36 78 91 76 23 24 6 0
0 0 0 0 8 0 3 0 0 7 23 15 10 12 37 19 24 15 4 9 11 16 3 2 1 5 0 0 1 1 1 3 4 4 3 6 4 4 6 9 4 0 0 0
0 0 0 5 11 11 9 11 11 13 12 0 1 9 1 0 9 18 4 9 0 28 3 2 8 1 2 2 4 0 0 4 3 3 2 1 0 1 0 0 0 0 0 0
0 0 0 13 16 7 2 0 0 0 0 0 0 0 0 0 9 6 4 21 10 3 14 20 19 0 0 0 0 0 0 0 0 1 2 1 0 0 0 0 0 0 0 0
15 2 0 0 0 0 0 0 0 0 0 0 0 0 1 13 27 4 12 2 10 21 22 23 2 0 0 0 0 0 0 0 0 0 0 0 0 0 0 0 0 0 0 0
10 2 0 0 0 0 0 0 0 0 0 0 3 3 20 15 11 7 37 22 16 6 1 2 1 0 0 0 0 0 0 0 0 0 0 0 0 0 0 0 0 0 0 0

GFSNW_con_sbcape_024.txt.gz
CAPE
25 33 26 6 0 0 0 0 0 0 0 15 9 20 0 0 25 46 39 7 8 16 8 0 0 0 0 0 0 0 0 0 0 0 0 0 0 0 0 0 0 0 0 0
27 29 24 0 0 0 1 0 0 0 0 15 27 33 27 16 45 45 52 52 40 13 18 8 5 8 0 0 0 0 0 0 0 0 0 0 0 0 0 0 0 0 0 0
25 29 27 7 0 0 3 5 3 6 21 27 43 38 65 52 42 42 23 60 60 27 6 16 16 10 0 0 0 0 0 0 0 0 0 0 0 0 0 0 0 0 0 0
12 27 28 27 0 0 18 25 17 17 17 35 35 40 69 38 27 52 56 25 35 33 10 27 10 15 2 0 0 0 0 0 0 0 0 0 0 0 0 0 0 0 0 0
4 9 23 36 19 0 31 25 25 30 16 30 44 19 72 35 19 31 50 37 1 7 47 14 14 13 17 10 0 0 0 0 0 0 0 0 0 0 0 0 0 0 0 0
2 2 16 41 32 1 45 38 42 58 14 28 63 54 16 22 21 58 51 39 28 15 18 7 14 9 2 1 0 0 0 0 0 0 0 0 0 0 0 0 0 0 0 0
1 2 8 27 59 43 102 62 66 63 29 27 26 13 12 5 6 14 24 32 33 32 11 1 7 6 0 0 0 0 0 0 0 0 0 0 0 0 0 0 0 0 0 0
1 3 8 17 41 66 60 84 94 63 41 20 27 14 6 17 8 8 21 37 64 39 37 73 40 24 13 0 0 0 0 0 0 0 0 0 0 0 0 0 0 0 0 0
1 3 9 20 36 58 60 61 86 83 40 16 15 27 19 26 27 17 16 21 53 76 116 85 57 46 14 7 3 0 1 0 0 0 0 0 0 0 0 0 0 0 0 0
1 8 14 11 35 55 62 34 29 60 38 4 18 24 33 29 29 33 19 20 43 64 139 113 67 58 26 17 22 16 6 21 3 1 0 0 0 0 41 1 94 28 5 1
4 12 9 15 22 51 59 13 1 14 21 8 17 11 25 24 25 51 25 23 33 105 153 79 58 69 75 55 22 21 21 16 6 2 1 0 0 0 0 53 63 22 22 4
10 6 12 16 23 48 53 38 3 2 23 7 3 23 18 13 15 28 26 21 25 32 135 146 162 85 75 66 75 56 28 20 26 8 0 0 0 0 0 0 0 0 0 0
10 6 15 15 31 30 35 7 3 7 9 4 7 7 13 7 13 17 25 14 15 16 30 18 90 68 95 118 66 80 71 52 51 27 0 9 3 0 0 0 0 0 0 0
5 7 12 18 31 30 34 36 2 1 12 18 1 1 5 12 10 21 24 22 12 16 37 75 46 54 42 101 87 73 70 67 53 62 54 19 12 0 0 0 9 1 0 2
6 7 13 18 21 21 39 77 4 0 0 19 5 1 1 0 1 4 15 19 17 21 48 59 54 37 33 36 34 15 9 12 52 37 22 38 34 22 9 21 3 2 2 0
6 14 16 14 12 6 20 18 7 8 8 14 22 4 5 6 0 1 6 7 10 23 29 18 18 11 36 114 32 6 8 17 11 46 83 82 74 51 0 0 0 0 4 83
14 19 10 3 3 8 10 5 1 4 28 11 23 15 10 4 8 2 4 14 15 14 20 33 13 9 32 44 18 0 16 28 34 22 22 29 22 18 11 36 19 16 85 129
16 10 5 1 0 2 8 11 4 12 22 13 19 21 18 7 25 33 17 16 18 17 15 18 25 25 24 22 0 1 12 23 31 13 8 9 28 27 4 12 163 137 105 1
8 2 1 4 9 10 14 14 12 23 7 7 9 12 20 15 14 28 9 9 13 16 17 16 29 11 2 3 18 19 35 35 8 12 8 11 49 43 25 33 50 0 27 1
0 2 3 21 10 7 7 8 8 9 15 9 7 9 4 7 11 12 18 22 13 11 7 11 4 2 3 1 3 3 0 13 24 19 10 16 79 120 70 28 0 4 5 17
1 0 0 1 0 9 13 8 1 3 2 4 3 3 4 5 7 12 11 11 10 7 7 6 1 0 12 11 15 7 7 2 5 7 4 73 132 61 23 31 82 73 43 25
0 0 1 0 8 7 3 7 3 5 11 17 6 9 2 2 6 8 5 3 5 49 78 14 3 0 19 4 5 10 4 5 44 11 7 45 78 18 22 11 4 7 0 4
0 0 0 3 5 3 9 4 13 7 16 15 18 31 48 35 19 90 86 45 97 86 65 8 3 11 6 0 2 5 4 2 2 5 13 2 1 4 2 3 5 5 2 20
0 0 0 2 16 6 4 15 14 10 11 2 22 28 26 26 22 25 41 104 18 52 46 16 31 48 19 8 2 2 4 5 4 4 4 2 3 4 4 4 5 1 0 1
0 0 3 10 8 8 9 4 2 1 0 21 74 59 7 13 26 48 19 55 34 13 22 46 63 34 3 0 0 3 4 5 3 1 3 3 1 2 3 1 0 0 1 0
1 6 5 2 1 0 0 0 0 0 3 51 21 19 15 52 80 12 28 26 16 26 42 39 1 0 0 0 0 0 0 0 0 0 0 0 0 0 0 0 0 0 0 0
6 23 5 3 3 2 0 0 0 0 0 1 8 16 28 27 25 45 11 10 13 15 0 0 0 0 0 0 0 0 0 0 0 0 0 0 0 0 0 0 0 0 0 0

GFSNW_con_sbcape_027.txt.gz
CAPE
8 16 11 0 0 0 0 0 0 0 0 37 40 41 44 14 18 67 52 34 8 2 9 0 0 8 0 0 0 0 0 0 0 0 0 0 0 0 0 0 0 0 0 0
7 12 17 0 0 0 0 3 0 7 0 32 88 70 70 105 139 75 69 36 9 33 14 3 1 2 0 0 0 0 1 0 0 1 0 0 0 0 0 0 0 0 0 0
8 10 12 6 0 0 0 11 17 4 21 41 60 67 118 97 83 65 55 97 45 7 6 6 2 7 1 0 0 0 0 0 0 0 0 0 0 0 0 0 0 0 0 0
6 9 14 12 4 0 0 17 16 16 23 38 45 80 69 145 83 72 75 136 42 32 22 43 8 5 17 1 0 0 0 0 0 0 4 0 0 0 0 0 0 0 0 0
4 8 13 23 34 0 46 31 16 18 29 20 51 90 104 72 82 83 96 67 49 26 52 29 6 30 7 8 4 0 0 0 0 0 0 0 0 0 0 0 0 0 0 0
5 4 10 18 36 7 32 57 44 62 17 26 44 49 57 50 18 82 98 56 34 55 49 44 28 13 7 3 2 4 0 2 22 5 0 1 0 0 0 0 0 0 0 0
4 4 10 17 28 35 74 55 42 54 24 28 30 26 30 49 46 57 26 56 121 93 57 19 13 4 3 0 0 1 2 2 15 19 8 11 0 0 0 0 0 0 0 0
3 4 12 21 29 45 64 62 42 31 55 21 33 19 26 20 26 61 114 81 81 88 62 60 78 35 14 3 0 0 0 2 9 8 16 0 0 0 0 0 0 0 0 0
7 6 11 22 28 34 44 44 60 27 33 13 21 39 31 27 59 136 146 130 83 74 112 92 79 56 43 9 0 0 0 1 5 12 4 35 12 0 0 0 0 0 0 0
9 11 8 14 34 32 34 29 23 39 20 11 17 32 44 46 49 40 35 67 120 116 133 130 122 35 58 36 25 1 3 5 5 9 2 3 19 29 12 7 312 180 11 7
10 5 13 20 23 34 46 41 6 16 17 6 12 22 14 44 26 48 62 108 152 78 141 138 91 60 117 63 9 19 9 12 16 14 12 2 0 0 55 26 6 12 21 7
11 6 14 17 25 36 40 33 3 3 12 4 1 17 20 22 21 29 41 48 55 52 163 263 231 137 68 73 78 21 13 22 11 6 10 9 0 1 1 0 0 0 1 3
14 9 17 16 26 22 31 44 4 9 7 6 6 12 13 24 5 26 16 28 25 28 28 58 85 101 150 120 66 36 66 37 22 13 1 0 0 0 0 0 0 0 0 0
14 14 13 12 28 23 27 38 3 7 12 9 1 16 11 3 17 17 16 28 14 16 45 74 92 68 105 124 85 101 76 53 33 8 12 2 2 2 0 0 0 0 0 1
12 10 10 20 18 15 13 67 1 1 6 19 6 0 10 15 9 13 4 8 22 21 22 66 65 39 41 31 42 28 81 73 66 59 41 30 5 1 0 0 0 0 0 0
8 10 13 10 8 0 28 43 31 24 13 21 18 8 8 16 16 4 8 20 21 43 47 25 16 10 28 63 27 14 48 61 73 84 46 41 53 39 26 0 8 0 0 0
11 13 7 1 0 18 9 12 12 4 30 15 18 25 19 18 20 28 30 23 31 28 15 14 28 32 24 31 26 0 12 27 55 20 29 99 70 62 81 36 26 5 0 0
9 2 0 0 0 0 16 15 3 16 20 11 17 15 17 10 15 27 13 13 17 11 8 11 18 19 24 30 1 45 43 35 39 42 29 18 42 26 24 4 59 69 59 37
1 0 0 4 0 11 19 2 6 19 13 6 11 11 10 3 6 24 13 6 16 15 16 9 11 8 5 12 8 2 0 3 18 35 23 19 41 38 22 12 43 25 14 83
0 2 4 2 13 3 1 7 13 6 10 7 7 7 2 5 9 9 20 9 14 20 7 8 9 1 3 10 4 7 4 5 7 24 15 2 8 27 16 16 32 15 109 6
1 18 14 4 0 6 7 23 15 9 31 6 3 3 3 3 6 8 8 7 8 8 77 52 3 0 9 24 8 29 29 6 4 1 3 5 5 16 105 110 128 109 38 25
0 0 0 11 5 7 10 14 12 27 233 60 41 119 1 3 4 8 36 50 48 99 71 66 20 1 12 14 38 33 22 43 41 24 20 33 58 232 182 28 49 10 5 5
0 0 1 2 1 12 8 5 12 6 17 19 35 200 57 78 10 125 106 29 65 31 62 11 27 88 21 15 30 22 16 32 7 4 11 7 7 8 6 13 11 10 7 8
0 0 15 13 30 22 15 30 23 34 21 54 89 367 150 113 93 63 42 68 51 52 37 19 123 92 112 77 73 62 24 9 17 10 5 5 5 5 5 12 6 5 3 2
1 3 70 22 16 18 31 29 30 13 25 160 141 109 118 63 40 34 48 64 110 70 40 55 21 97 99 67 53 44 41 67 34 53 13 5 7 7 8 12 6 6 9 3
3 6 5 7 3 2 1 2 1 4 26 359 64 54 56 26 20 8 21 52 21 34 37 19 48 53 64 66 23 19 4 9 10 5 11 30 0 0 2 0 0 0 0 0
8 14 9 6 0 0 1 1 0 3 10 35 27 14 18 12 31 44 8 21 7 48 0 2 46 64 58 15 7 2 2 3 3 8 32 12 8 6 0 0 0 0 0 0

GFSNW_con_sbcape_030.txt.gz
CAPE
0 1 3 0 0 0 0 0 7 0 0 1 4 21 12 20 61 98 25 14 2 13 17 5 14 17 1 0 0 0 0 0 0 0 0 0 0 0 0 0 0 0 0 13
3 0 0 0 0 0 5 0 4 5 0 10 4 12 18 20 103 107 42 25 39 3 8 5 10 18 3 0 0 0 0 0 0 0 4 0 0 0 0 0 0 0 0 0
4 2 0 0 0 0 3 6 8 6 0 10 26 32 30 65 110 151 73 55 77 41 16 2 6 12 2 0 0 0 0 0 0 0 0 0 0 0 0 0 0 0 0 0
4 4 6 2 0 0 0 15 12 8 3 12 22 28 82 100 141 56 34 90 75 60 24 20 13 6 0 0 17 0 0 0 0 0 0 7 0 0 0 0 0 0 0 0
6 4 10 12 13 1 16 38 64 19 10 31 30 41 78 149 93 44 40 120 101 27 19 11 19 16 5 15 0 0 0 0 0 6 0 0 4 0 0 0 0 0 0 2
4 3 9 13 17 25 32 33 2 45 4 28 38 75 77 45 111 123 84 74 52 15 30 25 11 1 0 0 0 0 0 0 0 0 0 0 2 2 0 0 0 0 0 11
3 7 14 16 24 29 91 40 17 18 13 17 30 40 72 82 73 58 47 78 79 79 42 11 1 0 0 0 1 0 0 0 0 0 0 2 0 3 1 0 0 0 0 43
6 9 16 19 27 27 113 45 6 17 36 22 19 29 57 94 59 76 157 169 170 86 57 46 22 9 0 1 0 0 0 0 0 0 1 0 10 0 0 0 1 5 4 12
3 7 6 14 28 28 104 33 2 22 20 11 3 26 26 58 112 75 101 132 127 115 53 26 56 0 93 1 0 0 0 0 0 0 0 2 0 0 0 0 1 402 40 0
9 7 14 21 28 28 90 43 1 10 13 5 6 7 31 49 81 106 75 133 125 59 44 67 32 10 0 32 0 0 0 0 0 0 0 0 0 0 0 11 121 85 97 113
5 10 15 22 23 31 72 36 1 1 14 2 3 7 9 21 46 65 63 62 145 183 174 168 126 6 43 14 0 3 0 0 0 0 0 0 0 0 26 62 0 0 0 0
11 13 17 18 22 28 32 26 2 2 6 0 0 0 6 23 28 55 38 26 32 26 48 124 28 50 19 32 3 0 2 25 1 0 0 62 0 0 0 0 0 0 0 0
13 16 18 18 26 21 26 37 4 5 3 0 1 0 12 8 13 38 7 30 31 33 18 21 13 27 44 52 11 1 0 1 1 1 0 0 0 0 0 0 0 0 0 0
12 12 15 18 17 18 19 37 2 4 6 7 0 10 18 15 8 11 22 16 12 31 33 33 50 24 36 23 13 7 5 0 2 14 0 0 0 0 0 0 0 0 0 0
8 14 14 13 7 1 3 27 0 2 6 14 7 1 16 2 24 18 42 29 23 16 27 18 21 18 15 14 2 0 0 0 2 7 20 49 25 1 0 0 0 0 0 0
7 12 8 4 0 0 24 34 28 8 9 13 11 6 15 9 19 26 10 35 55 93 50 48 28 14 25 34 9 0 10 16 10 1 0 0 0 0 0 0 0 0 0 0
13 6 0 0 0 1 3 1 4 0 20 13 9 5 10 2 4 27 27 30 29 18 11 8 12 18 21 21 17 0 9 15 5 0 5 1 0 0 0 0 0 0 0 0
7 0 0 0 0 0 5 5 2 8 9 9 5 2 3 1 6 14 8 7 11 9 7 9 17 21 13 13 0 9 14 13 15 11 1 0 1 2 27 13 0 0 0 0
0 0 0 1 0 1 7 0 0 4 7 7 5 4 2 1 3 12 8 5 14 13 11 9 5 4 1 0 0 9 8 19 7 0 4 9 0 3 7 3 1 1 0 0
0 0 6 6 2 0 0 4 7 8 6 4 6 3 5 1 6 5 16 4 11 11 5 6 3 0 1 37 40 17 32 11 8 11 17 1 22 24 26 24 16 3 0 6
0 34 10 0 0 4 6 23 18 40 92 7 18 0 6 1 6 6 6 8 7 86 106 56 3 0 22 39 52 52 47 12 15 23 10 3 1 5 8 13 18 31 86 104
0 0 0 1 10 4 9 7 17 12 55 23 25 22 84 10 4 5 13 79 78 44 17 32 3 22 75 48 53 65 54 28 16 9 12 8 10 21 21 24 7 6 6 4
69 0 5 2 5 4 10 14 23 48 23 55 55 370 131 301 4 191 201 20 27 35 51 4 12 89 92 74 71 58 70 53 46 6 6 6 4 4 15 17 15 14 12 10
39 0 0 3 12 27 20 35 29 50 47 120 105 201 90 68 69 17 47 34 7 19 38 77 60 131 88 74 27 64 69 95 81 48 30 12 7 12 4 11 6 4 6 6
1 9 8 22 12 11 5 6 9 9 29 166 243 126 122 48 8 11 19 33 24 51 58 64 99 149 121 74 6 17 30 58 57 75 56 35 25 28 8 6 3 7 14 10
2 7 12 2 0 0 0 1 4 5 24 142 83 8 25 20 33 8 14 37 67 50 55 35 66 149 118 92 65 17 6 3 41 67 52 36 36 15 27 1 0 0 0 0
19 19 12 1 0 0 0 0 0 1 10 18 37 12 10 14 20 33 54 28 73 66 79 46 101 128 65 82 51 28 31 6 0 51 12 77 42 9 8 18 14 15 14 8

GFSNW_con_sbcape_033.txt.gz
CAPE
2 1 2 0 0 0 0 0 0 0 0 0 0 0 0 0 1 0 16 39 3 0 0 1 1 27 30 1 1 0 0 0 0 0 0 0 0 0 0 0 0 0 0 0
6 3 1 0 0 0 2 0 0 0 0 0 0 0 0 1 1 11 7 25 16 5 41 23 12 19 14 6 4 0 0 0 0 0 0 0 0 0 0 0 0 0 0 0
8 4 4 0 0 0 0 0 0 0 0 0 0 0 0 3 24 18 22 0 3 29 33 4 3 8 2 0 0 7 5 0 0 0 0 0 0 0 0 0 0 0 0 0
9 6 8 7 0 0 0 0 0 0 0 0 0 0 14 13 40 26 27 13 48 2 2 0 28 4 0 0 0 0 0 0 0 0 0 0 0 0 0 0 0 0 0 0
12 8 13 17 12 0 0 6 0 3 5 0 0 1 19 32 52 43 20 56 33 11 7 0 0 0 0 0 0 0 0 0 0 0 0 0 0 0 0 0 0 0 0 0
8 8 13 18 19 17 7 22 2 7 10 1 0 0 15 16 35 18 59 25 4 28 36 50 13 0 0 0 0 0 0 0 0 0 0 1 0 0 0 0 0 0 0 0
12 18 28 20 23 33 64 57 2 5 10 5 1 0 0 13 38 32 82 38 20 76 37 21 1 0 0 0 0 0 0 0 0 0 0 0 0 0 3 0 0 0 0 9
10 13 8 18 22 27 47 62 0 2 8 7 0 1 11 2 14 80 76 45 46 0 24 5 0 0 0 0 0 0 0 0 0 0 0 0 0 0 0 3 2 9 325 182
7 5 13 23 38 33 43 56 0 5 4 7 4 4 0 4 38 18 36 60 28 41 18 19 0 0 0 0 0 0 0 0 0 0 0 0 0 0 0 0 4 0 163 344
6 16 19 22 30 27 37 43 0 3 3 2 3 19 17 17 17 22 18 34 29 3 2 10 10 2 3 0 0 0 0 0 0 0 0 0 0 0 0 6 0 0 0 1
16 18 18 22 25 31 46 19 0 0 2 0 0 5 25 18 14 40 17 0 20 63 40 37 17 20 0 0 0 0 8 2 0 0 5 0 0 0 0 0 0 0 0 0
17 18 18 20 23 27 33 18 1 1 4 0 0 0 0 3 1 8 26 21 23 36 40 34 9 0 2 0 1 0 0 0 0 0 14 1 0 0 0 0 0 0 0 0
11 14 18 21 22 24 22 20 1 3 1 0 0 1 4 1 2 10 23 23 21 38 33 29 8 17 1 0 1 0 0 0 0 0 0 0 0 0 0 0 0 0 0 0
11 17 19 20 18 19 15 20 0 0 0 2 0 0 6 6 13 14 11 17 19 23 13 8 33 24 5 0 0 0 0 0 0 0 3 0 0 0 0 0 0 0 0 0
12 16 15 13 6 0 0 0 0 0 0 5 2 0 1 1 6 7 5 9 18 0 2 4 5 4 1 0 0 0 0 0 0 0 0 4 0 0 0 0 0 0 0 0
11 7 1 0 0 0 13 7 2 1 0 4 3 0 0 0 0 0 7 0 10 29 17 19 7 4 4 5 0 0 0 0 0 0 0 0 0 0 0 0 0 0 0 0
11 1 0 0 0 0 0 0 0 0 16 7 1 1 0 0 2 12 9 5 5 4 4 6 8 7 16 9 5 0 0 1 0 0 0 0 0 0 0 0 0 0 0 0
1 0 0 0 0 0 1 0 0 1 2 2 1 0 0 0 2 6 7 7 8 4 6 6 10 10 5 2 0 8 5 5 0 2 0 0 0 0 0 0 0 0 0 0
0 0 0 0 0 0 0 0 0 1 1 0 1 3 0 0 3 4 3 4 6 5 7 9 4 1 0 0 8 17 6 20 5 3 0 1 0 0 0 0 0 0 0 0
0 0 0 0 0 0 0 0 2 4 1 0 2 1 0 0 1 5 4 3 6 2 6 3 0 0 12 10 3 21 10 14 5 16 1 1 2 0 0 0 0 0 0 0
0 4 36 0 0 0 0 16 4 18 23 0 0 0 2 0 1 1 1 5 3 0 12 19 1 0 29 30 44 19 15 12 10 6 18 4 25 11 0 0 3 2 1 0
0 0 4 0 0 5 14 25 30 76 84 115 26 30 0 0 0 1 3 12 3 35 2 0 0 15 38 21 57 29 26 5 1 13 15 10 8 3 7 4 7 2 3 1
35 239 95 30 16 11 19 5 4 138 125 105 55 247 347 74 0 15 107 44 13 44 9 2 13 44 51 18 22 43 26 7 0 0 2 2 6 5 5 10 7 3 6 6
405 288 1 22 105 100 34 17 19 13 0 24 426 698 404 367 184 82 59 23 1 0 0 17 41 42 40 41 6 1 6 50 5 0 0 1 3 21 10 4 17 9 7 10
293 121 61 78 14 7 2 2 1 0 0 60 186 343 138 80 16 23 0 1 11 47 45 43 41 55 22 25 31 7 1 0 46 6 1 2 0 2 16 19 14 8 3 11
299 89 19 0 0 0 0 0 0 0 7 90 155 37 31 8 28 15 7 1 3 48 59 60 57 68 44 42 13 29 23 6 0 48 16 7 0 0 0 3 2 3 0 3
301 235 35 0 0 0 0 0 0 0 7 0 61 0 0 37 9 20 51 71 86 57 91 58 93 67 68 55 24 33 40 25 13 10 52 7 11 8 0 1 17 4 0 0

GFSNW_con_sbcape_036.txt.gz
CAPE
5 3 6 2 0 0 0 0 0 0 0 0 0 0 0 0 0 0 0 0 1 0 15 17 9 5 19 1 8 6 1 0 0 0 0 0 0 0 0 0 0 0 0 0
12 7 4 1 0 0 1 0 0 0 0 0 0 0 0 0 0 0 0 0 0 0 35 35 47 30 9 19 8 20 14 3 0 0 0 0 0 0 0 0 0 0 0 0
10 7 6 3 0 0 0 0 0 0 0 0 0 0 0 0 0 0 0 0 0 0 4 43 52 21 17 3 2 24 30 0 0 0 0 0 0 0 0 0 0 0 0 0
3 11 15 8 0 0 0 0 0 0 0 0 0 0 0 0 0 0 1 0 14 0 0 0 41 9 1 1 9 6 3 1 0 0 0 0 0 0 0 0 0 0 0 0
7 17 21 18 5 1 0 0 0 0 0 0 0 0 0 1 0 6 0 5 2 0 0 3 0 6 2 11 0 0 0 0 0 0 0 0 0 0 0 0 0 0 0 0
14 16 21 21 16 7 1 0 0 0 3 1 3 0 0 0 6 0 25 13 1 0 0 1 0 1 0 1 3 0 0 0 0 0 0 0 0 0 0 0 0 0 0 0
9 5 14 24 20 20 16 1 5 2 3 12 13 10 7 6 3 10 6 3 1 4 0 0 0 0 0 0 0 0 0 0 0 0 0 0 0 0 0 0 0 0 0 33
5 9 14 17 32 26 12 2 3 1 3 7 9 12 17 2 0 5 33 7 1 0 0 0 0 0 0 0 0 0 0 0 0 0 0 0 0 0 0 0 0 0 0 328
12 16 21 29 32 28 24 6 0 0 1 3 7 17 8 9 11 3 0 4 0 1 0 0 0 4 4 7 5 0 0 0 0 0 0 0 0 0 0 0 0 0 0 109
16 18 23 27 33 31 25 11 0 0 1 0 1 13 12 9 12 10 3 0 0 0 3 12 26 10 9 7 15 0 0 0 0 0 0 0 0 0 0 0 0 0 0 0
15 18 19 23 30 32 35 9 0 0 1 0 1 3 11 14 11 15 7 1 0 0 6 27 20 16 4 2 13 8 8 1 0 0 0 7 3 0 0 0 0 0 0 0
10 16 18 20 27 31 24 6 0 1 0 0 0 0 0 2 1 7 4 4 0 16 0 1 1 6 6 0 11 8 4 14 13 12 17 1 20 1 0 0 0 0 0 0
12 17 20 23 26 22 13 8 1 0 1 0 0 1 0 3 0 0 10 9 0 0 0 0 1 14 0 0 5 0 1 0 1 1 0 0 0 0 0 0 0 0 0 0
13 19 19 19 14 4 5 1 0 0 0 0 0 0 0 1 3 1 1 2 4 0 0 0 0 0 0 0 0 0 0 0 0 0 0 0 0 0 0 0 0 0 0 0
13 10 7 3 0 0 0 0 0 0 0 0 0 0 0 1 0 0 0 0 0 0 0 5 1 0 0 0 0 0 0 4 5 0 0 0 0 0 0 0 0 0 0 0
7 1 0 0 0 0 0 0 0 0 0 0 1 0 0 0 0 0 0 0 0 10 6 5 6 6 1 0 0 0 0 0 0 2 0 0 0 0 0 0 0 0 0 0
1 0 0 0 0 0 0 0 0 0 0 0 0 0 0 0 0 0 0 0 2 3 3 5 7 4 9 9 4 3 4 5 4 3 0 0 0 0 0 0 0 0 0 0
0 0 0 0 0 0 0 0 0 0 0 0 0 0 0 0 0 0 0 0 0 1 5 3 6 6 3 1 4 7 9 7 4 3 0 1 1 0 0 0 0 0 0 0
0 0 0 0 0 0 0 0 0 0 0 0 0 0 0 0 0 0 0 0 1 3 2 2 1 0 0 3 8 11 10 8 9 4 0 0 1 0 0 0 0 0 0 0
0 0 0 0 0 0 0 0 0 0 0 0 0 0 0 0 0 1 0 1 1 0 3 1 0 0 6 27 41 16 6 4 6 9 5 3 0 0 1 0 0 0 0 0
0 0 0 0 0 0 0 0 0 0 0 0 0 0 0 0 0 0 0 0 0 0 0 0 0 3 23 3 7 17 1 2 4 4 9 8 5 39 2 5 6 0 1 0
0 0 0 0 0 0 3 0 0 13 30 16 7 0 0 0 0 0 0 0 0 0 0 0 2 12 18 20 0 11 9 1 1 0 2 5 8 7 11 7 3 1 2 2
0 0 0 0 0 13 13 10 0 6 3 18 9 58 2 0 0 0 0 16 0 0 0 0 7 16 6 1 1 0 28 2 1 0 0 0 0 3 5 7 11 10 8 8
16 211 0 0 1 2 0 0 0 0 0 0 0 128 130 18 3 0 14 0 0 0 0 13 5 0 1 0 0 0 4 8 0 0 1 1 0 1 2 7 9 10 8 8
201 0 0 0 0 0 0 0 0 0 0 0 0 0 0 0 0 0 0 0 0 0 0 1 0 0 0 0 0 0 2 22 1 0 0 1 0 0 1 1 5 7 8 11
69 0 0 0 0 0 0 0 0 0 0 0 0 0 0 0 0 0 0 0 0 15 11 0 1 2 0 0 0 0 1 3 33 9 0 0 0 0 0 1 2 0 0 10
16 7 0 0 0 0 0 0 0 0 0 0 0 0 0 0 0 0 0 1 0 0 1 0 0 5 5 0 0 0 0 3 0 39 28 16 7 5 6 0 0 0 3 5

GFSNW_con_sbcape_042.txt.gz
CAPE
6 11 16 14 0 0 0 0 0 0 0 0 0 0 0 0 0 0 0 0 0 0 0 0 0 0 0 0 0 0 1 48 24 0 0 0 0 0 0 0 0 0 0 0
8 14 18 9 0 0 1 0 0 0 0 0 0 0 0 0 0 0 0 0 0 0 0 0 0 0 0 0 0 0 0 4 7 0 0 0 0 0 0 0 0 0 0 0
13 18 19 9 6 3 0 0 0 0 0 0 0 1 0 0 0 0 0 0 0 0 0 0 0 0 1 0 0 57 64 24 2 0 0 0 0 0 0 0 0 0 0 0
3 15 18 14 10 2 0 0 0 0 0 0 1 3 0 0 2 0 0 0 0 0 0 0 0 0 0 18 67 47 0 27 7 1 1 0 0 0 0 0 0 0 0 0
4 9 21 19 12 1 0 0 0 0 0 0 0 3 5 3 4 10 11 8 1 1 10 0 0 0 0 2 12 44 24 25 33 0 0 0 0 0 0 0 0 0 0 0
9 14 17 29 21 2 0 0 0 0 1 3 3 14 11 11 25 7 8 27 19 29 0 0 0 0 0 0 18 16 19 64 2 0 0 0 0 0 0 0 0 0 0 0
16 21 25 30 34 14 0 0 1 3 6 5 15 12 17 24 26 27 6 16 16 1 0 0 0 0 0 0 0 0 3 28 6 0 0 0 0 0 0 0 0 0 0 0
19 16 17 20 34 28 5 0 3 0 2 5 9 12 13 10 7 20 20 2 13 0 0 0 0 0 0 0 0 6 0 14 12 0 0 0 0 0 0 0 0 0 0 0
11 15 20 22 34 27 11 6 0 0 1 1 0 17 7 12 8 15 2 0 0 0 0 7 2 0 33 22 5 11 17 9 22 4 0 25 0 0 0 0 0 0 0 0
15 23 24 27 31 30 10 3 0 0 0 0 0 6 9 3 7 4 1 2 0 0 4 5 4 2 0 10 14 28 32 25 4 22 7 3 2 0 0 0 0 0 0 0
21 24 23 24 31 29 0 0 0 0 0 0 0 3 19 22 8 4 3 0 0 1 10 21 3 10 11 10 4 6 11 15 28 25 20 13 15 0 0 0 0 0 0 0
18 19 16 26 24 15 0 0 0 1 0 0 0 0 0 0 15 30 3 1 8 2 8 9 9 13 8 9 8 9 13 14 8 20 26 0 9 0 0 0 0 0 0 0
9 13 13 15 8 2 0 3 1 0 0 0 0 0 0 1 0 0 8 0 0 2 0 6 9 12 11 10 16 20 11 13 13 7 2 1 3 0 0 0 0 0 0 0
8 10 7 1 0 1 0 0 0 0 0 0 0 0 0 0 0 0 0 0 0 0 0 0 7 19 4 15 11 20 15 8 5 4 0 0 0 0 0 0 0 0 0 0
1 1 0 0 0 1 0 0 0 0 0 0 0 0 0 0 0 0 0 0 0 0 0 0 5 7 8 1 4 11 21 12 8 7 0 2 0 0 0 0 0 0 0 0
1 0 0 0 0 0 0 1 0 0 0 0 0 0 0 0 0 0 0 0 0 0 0 4 0 1 11 7 11 17 15 14 14 10 13 3 0 0 0 0 0 0 0 0
0 0 0 0 0 0 0 0 0 0 0 0 0 0 0 0 0 0 0 0 0 0 3 1 2 5 4 5 1 23 8 8 9 6 5 1 0 1 1 0 0 0 0 0
0 0 0 0 0 0 0 0 0 0 0 0 0 0 0 0 0 0 0 0 0 1 0 0 3 2 1 1 14 11 16 13 8 5 3 2 0 0 0 0 0 0 0 2
0 0 0 0 0 0 0 0 0 0 0 0 0 0 2 0 0 0 0 0 0 0 0 0 0 0 17 28 5 17 16 13 7 8 3 2 4 1 0 0 0 0 0 0
0 0 0 0 0 0 0 0 0 0 0 0 0 0 0 0 0 0 0 0 0 0 2 0 1 0 0 1 0 26 32 6 3 6 6 5 5 7 7 6 5 0 0 0
0 0 0 0 0 0 0 0 0 0 0 0 0 0 0 0 0 0 0 0 0 0 0 1 0 0 0 0 0 3 26 1 0 0 8 6 5 8 9 8 7 6 6 6
0 0 0 0 0 0 0 0 0 0 0 0 0 0 0 0 0 0 0 0 0 0 0 0 0 1 0 0 0 0 4 7 0 0 0 1 6 6 4 5 5 3 4 5
0 0 0 0 0 0 0 0 0 0 0 0 0 0 0 1 0 0 0 0 0 0 0 1 0 3 0 0 0 0 2 0 0 0 0 0 0 0 0 0 1 2 2 3
0 0 1 0 0 0 0 0 0 0 0 0 0 0 0 0 0 0 0 0 0 0 0 0 0 0 0 0 0 0 0 0 0 0 0 0 0 0 0 0 0 0 4 4
0 0 0 0 0 0 0 0 0 0 0 0 0 0 0 0 0 0 0 0 0 0 0 0 0 0 0 0 0 0 0 0 0 0 0 0 0 0 0 0 0 0 0 2
0 0 0 0 0 0 0 0 0 0 0 0 0 0 0 0 0 0 0 0 0 0 0 0 0 0 0 0 0 0 0 0 0 0 0 0 0 0 0 0 0 0 0 0
0 0 0 0 0 0 0 0 0 0 0 0 0 0 0 0 0 0 0 0 0 0 0 0 0 0 0 0 0 0 0 0 0 0 0 0 0 0 0 0 0 0 0 0

GFSNW_con_sbcape_045.txt.gz
CAPE
11 16 18 11 3 0 0 0 0 0 0 0 0 0 0 0 0 0 0 0 0 0 0 0 0 0 0 0 0 0 0 3 0 0 0 0 0 0 0 44 0 0 0 0
13 18 18 10 5 1 1 0 0 0 0 0 0 0 0 0 0 0 0 0 0 0 0 0 0 0 0 0 0 1 2 8 0 0 0 0 0 0 0 0 2 5 2 0
9 15 16 10 6 0 0 0 0 0 0 0 1 0 0 0 0 2 4 0 0 0 0 0 0 0 20 18 10 25 3 1 0 0 0 0 0 0 0 0 27 6 9 0
11 14 20 14 7 0 0 0 0 0 2 2 1 1 0 6 9 5 6 16 1 2 4 0 0 0 0 41 42 53 30 0 5 0 0 0 0 0 0 0 0 25 1 5
14 16 24 24 12 0 0 0 1 0 4 0 2 0 9 9 8 10 9 17 15 21 45 1 3 0 3 0 21 65 17 2 10 0 0 0 0 0 0 0 0 0 0 1
15 17 25 26 19 0 0 0 0 2 4 2 6 15 16 14 28 9 6 26 5 13 11 10 18 18 17 2 5 73 81 35 23 3 0 7 17 0 0 0 0 0 0 0
17 17 18 24 22 2 1 0 0 7 5 7 12 14 17 20 15 30 16 20 18 1 19 19 26 28 22 25 25 80 64 55 60 9 13 41 3 15 0 5 0 0 0 0
12 16 18 22 28 7 6 4 11 6 4 4 5 8 6 8 17 12 5 5 25 22 15 67 28 3 23 11 60 89 92 87 62 69 57 5 130 6 5 31 0 0 0 0
18 24 26 24 21 2 14 10 0 0 3 7 10 8 5 8 4 1 0 0 0 5 37 64 20 16 26 27 8 2 57 87 89 38 49 23 7 1 0 0 0 0 0 0
19 25 22 15 19 1 13 15 0 0 2 0 0 12 16 6 7 3 5 4 6 2 34 42 32 27 6 47 22 20 78 67 34 40 36 3 13 6 0 34 1 0 0 0
15 16 11 10 14 3 3 10 1 0 2 3 0 1 11 6 10 5 0 2 5 14 18 55 41 34 31 20 9 29 17 41 21 25 25 6 7 0 1 2 0 0 0 0
12 12 7 7 3 0 0 14 6 4 4 2 0 0 0 1 12 16 1 5 4 15 10 22 23 27 36 34 25 12 28 11 15 10 5 4 14 11 3 1 0 0 0 0
12 9 5 0 0 0 0 7 9 8 4 0 0 0 0 4 5 15 26 10 3 22 3 16 14 16 18 25 35 14 11 16 7 11 10 22 7 6 5 0 0 0 0 0
4 4 0 0 0 1 0 4 3 2 0 0 0 0 0 0 0 0 13 6 9 6 0 1 22 21 5 20 9 18 15 14 11 11 7 1 0 0 7 3 0 0 0 0
0 0 0 0 0 0 0 1 0 0 1 0 0 0 0 0 0 0 0 1 1 0 0 3 10 13 13 13 19 7 23 25 18 16 15 23 8 8 12 3 1 0 0 0
0 0 0 0 0 0 0 6 2 0 1 1 0 0 0 0 0 0 0 0 1 1 5 8 7 4 14 15 40 28 34 23 36 24 10 6 1 1 1 4 2 0 0 0
0 0 0 0 0 0 0 0 0 0 0 0 0 2 0 0 0 0 0 0 1 1 4 4 9 9 7 9 5 46 60 40 26 17 5 2 3 10 12 1 0 0 0 0
0 0 0 0 0 0 0 0 0 0 0 0 9 50 1 0 0 0 2 1 1 1 3 4 6 13 14 55 54 56 23 8 14 22 6 9 7 14 8 5 3 0 0 0
0 0 0 0 0 1 0 0 0 0 0 3 6 8 140 0 1 0 1 1 3 3 7 8 3 2 41 70 69 53 35 27 11 9 8 9 10 10 7 6 8 6 5 3
0 0 0 1 0 0 0 5 2 3 1 2 3 4 20 1 1 0 0 2 2 3 9 5 1 86 16 22 34 88 42 10 8 11 8 10 10 11 12 13 9 8 9 6
0 0 0 2 0 3 3 0 0 0 0 1 0 1 3 0 27 5 1 1 10 0 0 12 3 60 40 8 17 57 33 7 4 3 8 10 17 18 16 10 9 7 7 11
0 0 0 0 0 0 0 0 0 0 6 0 6 6 4 4 1 10 2 2 4 3 1 1 124 81 24 9 8 19 23 4 0 0 0 0 2 6 10 14 11 9 7 11
0 0 0 0 0 0 0 0 0 0 0 0 0 0 8 6 0 3 2 1 4 0 1 32 76 87 74 24 2 0 31 4 0 0 0 0 0 0 0 2 12 16 10 9
0 3 2 0 0 0 0 0 0 0 0 0 0 0 2 4 1 0 0 0 0 0 0 68 54 67 66 52 13 0 0 36 10 11 6 3 0 1 2 1 4 6 9 14
0 0 1 0 3 0 0 0 0 0 0 0 0 0 0 0 0 0 0 0 0 0 8 19 60 76 72 62 43 6 0 25 59 36 28 24 25 28 31 34 20 2 2 16
0 0 0 0 0 2 0 0 0 0 0 0 0 0 0 0 0 0 0 0 0 10 33 12 2 27 85 79 59 31 0 0 40 91 97 78 72 84 104 83 41 21 0 2
0 4 1 0 0 0 0 0 0 0 0 0 0 0 0 0 0 0 0 1 8 0 0 0 0 82 124 42 42 46 6 17 36 86 136 131 144 121 94 21 13 3 25 1

GFSNW_con_sbcape_048.txt.gz
CAPE
13 18 17 10 2 0 0 0 0 0 0 0 0 0 0 0 0 0 0 0 0 0 0 0 3 1 0 0 0 0 0 0 0 0 0 0 0 0 7 42 20 2 4 15
14 18 15 8 1 0 0 0 0 0 0 1 4 1 0 0 0 5 6 4 2 2 4 4 4 2 0 0 0 0 1 0 0 0 0 0 0 0 0 0 4 25 25 3
12 17 13 2 0 0 0 0 0 2 2 7 1 0 2 6 0 9 17 22 25 16 18 11 10 7 4 2 3 0 0 0 0 0 0 0 0 0 0 21 41 2 7 13
12 17 17 4 0 0 0 0 2 3 5 6 10 6 5 1 6 10 9 18 28 39 38 47 21 8 1 15 21 35 16 18 0 0 0 0 0 0 0 0 4 4 1 36
12 14 23 15 0 0 1 8 20 0 2 0 7 2 9 13 17 16 9 19 16 21 79 70 35 14 32 36 64 36 38 31 19 5 1 0 0 0 0 0 0 0 0 0
10 11 20 17 1 0 5 0 0 11 0 5 21 19 18 18 24 9 16 29 31 14 27 11 20 45 66 68 88 97 86 81 68 18 0 1 2 0 0 0 0 0 0 0
10 11 17 22 3 0 14 3 12 18 12 12 21 24 25 12 34 19 21 25 39 35 34 65 60 80 122 156 106 89 146 160 163 59 29 84 1 0 0 0 0 0 0 0
15 20 20 18 2 0 31 26 24 17 13 8 9 22 12 12 4 3 10 11 16 23 33 45 89 49 44 89 142 95 139 194 104 166 103 30 0 0 9 0 0 0 2 0
9 15 15 11 1 0 40 44 30 7 15 14 18 8 24 12 9 20 9 18 16 21 52 74 51 70 40 25 45 132 105 261 275 153 57 36 12 0 0 34 63 95 58 114
6 10 8 0 1 0 20 44 30 4 23 16 22 18 14 8 12 7 27 29 14 16 41 58 61 52 68 34 52 43 165 215 133 74 80 36 0 0 14 18 112 7 1 0
5 6 0 0 0 0 10 31 17 24 18 8 11 14 30 8 20 16 6 34 25 20 40 62 77 67 54 22 33 34 43 63 65 69 47 26 1 5 17 27 4 1 0 0
4 4 4 0 0 0 0 17 24 25 9 1 3 5 12 16 43 43 39 33 28 20 19 36 30 52 65 36 68 7 50 23 51 35 27 3 1 10 49 7 11 4 0 1
4 6 1 0 0 0 0 9 14 17 5 7 9 2 2 10 4 31 54 36 51 48 19 26 15 22 24 59 73 19 8 10 18 10 6 13 13 35 56 26 13 4 4 0
0 0 0 0 0 0 0 10 10 5 1 11 3 0 0 0 0 0 9 16 17 17 1 26 49 47 15 52 20 10 5 16 12 6 7 11 30 30 61 27 10 3 2 1
0 0 0 0 0 0 2 13 8 3 0 13 8 0 0 0 0 1 0 5 21 39 44 26 20 15 15 24 44 28 40 28 25 17 17 17 5 39 42 25 6 5 0 0
0 0 0 0 0 1 16 1 6 7 8 6 22 0 0 0 1 10 8 0 0 6 15 17 24 12 22 74 67 77 47 41 31 27 17 41 50 22 16 13 7 9 2 8
0 0 0 0 0 7 2 5 3 0 4 6 158 197 0 0 0 1 17 4 0 0 7 26 22 29 53 58 61 82 78 37 36 20 12 11 25 20 8 15 7 8 2 0
0 0 0 0 0 0 2 3 0 0 4 2 108 288 206 0 1 3 0 43 26 1 6 14 14 32 67 81 64 81 51 29 22 22 23 24 12 10 14 11 10 13 18 17
2 0 0 2 3 8 4 0 0 0 2 5 3 199 324 2 16 0 8 15 57 3 33 30 39 50 82 84 60 85 74 42 24 16 14 17 15 9 8 11 9 7 9 14
0 0 5 13 3 0 0 4 9 11 9 4 5 2 146 16 11 25 7 5 5 6 13 23 15 55 46 35 31 70 68 35 23 18 14 7 15 18 19 14 20 16 14 10
0 0 13 4 0 5 7 2 15 50 181 60 4 3 194 33 46 11 2 6 12 3 2 17 32 38 59 37 26 63 69 43 28 28 24 24 19 14 16 18 21 17 17 13
0 0 0 4 4 35 12 2 0 13 12 16 18 80 5 23 17 30 13 24 10 21 1 22 84 70 43 33 15 22 82 61 38 31 37 32 32 32 22 18 19 19 15 12
0 0 39 3 6 21 7 82 22 25 6 1 0 4 57 11 7 20 30 38 40 5 23 17 65 49 9 14 15 10 33 79 64 51 39 38 44 49 50 37 31 26 17 17
3 160 9 5 14 31 39 46 29 0 0 0 0 125 120 73 163 90 54 38 19 20 45 74 35 64 25 5 1 2 8 31 55 59 64 51 46 45 47 50 50 37 38 13
11 34 2 9 22 27 21 12 1 0 0 0 9 22 111 63 41 1 1 13 25 41 70 50 81 109 94 37 33 11 3 8 46 58 58 50 49 54 46 49 44 50 47 40
17 58 50 35 37 87 70 83 101 12 0 0 0 0 10 15 27 15 21 8 32 51 101 82 28 118 90 85 89 64 16 18 31 51 52 45 48 33 43 24 21 34 50 50
66 21 19 91 121 140 141 122 99 0 0 0 0 17 1 13 1 18 3 38 57 67 47 13 104 58 65 47 59 86 37 49 52 49 43 42 47 36 21 22 23 25 47 58